Location: Igon
(43.1667°N, 0.2333°W)
Time: 03:48:26
(UTC+00:00)

SKYMED 3 - Pass Details

Date: 19 April 2021
Orbit: 621 x 624 km, 97.9° (Epoch: 18 May)

Event Time Altitude Azimuth Distance (km) Brightness Sun altitude
Rises 04:28:26 0° 141° (SE) 2,894 8.2 -8.3°
Reaches altitude 10° 04:30:46 10° 132° (SE) 1,992 7.5 -8.0°
Maximum altitude 04:34:37 32° 69° (ENE) 1,076 6.8 -7.3°
Drops below altitude 10° 04:38:29 10° 6° (N) 2,004 7.6 -6.7°
Sets 04:40:51 0° 357° (N) 2,915 8.3 -6.3°
